Hourly Data Report for October 17, 2017

All times are specified in Local Standard Time (LST). Add 1 hour to adjust for Daylight Saving Time where and when it is observed.

KLEEFELD (MAFRI)
MANITOBA

49°31'04.000" N
96°54'04.000" W
246.50 m
5021500
71646
PTG

Download Data

Hourly Data (October 2017)
Hourly Data Report for October 17, 2017
Temp Definition
°C
Dew Point Temp Definition
°C
Rel Hum Definition
%
Wind Dir Definition
10's deg

Wind Spd Definition
km/h
Visibility Definition
km
Stn Press Definition
kPa
Hmdx Definition


Wind Chill Definition


Weather Definition


TIME
00:00 3.4 -0.4 76 19 7   98.17     LegendNANA
01:00 2.9 -0.5 78 19 8   98.17     LegendNANA
02:00 1.7 -1.0 83 18 10   98.19     LegendNANA
03:00 2.2 -0.8 81 16 9   98.13     LegendNANA
04:00 2.6 -0.5 80 11 8   98.10     LegendNANA
05:00 2.9 -0.8 77 19 11   98.11     LegendNANA
06:00 6.0 0.2 66 14 7   98.08     LegendNANA
07:00 5.1 -0.1 69 16 11   98.03     LegendNANA
08:00 6.6 0.9 67 17 8   97.97     LegendNANA
09:00 11.1 2.2 54 16 13   97.95     LegendNANA
10:00 16.0 2.4 40 17 17   97.87     LegendNANA
11:00 18.1 1.5 33 19 28   97.77     LegendNANA
12:00 17.9 1.2 33 21 26   97.74     LegendNANA
13:00 19.6 2.0 31 20 29   97.62     LegendNANA
14:00 21.2 1.8 28 19 24   97.53     LegendNANA
15:00 22.2 1.2 25 20 25   97.46     LegendNANA
16:00 21.7 0.3 24 21 25   97.38     LegendNANA
17:00 19.6 1.0 29 19 16   97.30     LegendNANA
18:00 16.5 0.7 34 18 13   97.24     LegendNANA
19:00 13.6 0.3 40 17 9   97.17     LegendNANA
20:00 15.8 0.0 34 19 19   97.11     LegendNANA
21:00 16.5 -0.1 32 19 21   97.05     LegendNANA
22:00 15.4 -0.1 35 19 26   96.98     LegendNANA
23:00 15.7 -0.5 33 18 16   96.86     LegendNANA

Notes on Data Quality.

Legend

  • E = Estimated
  • M = Missing
  • NA = Not Available
  • ‡ = Partner data that is not subject to review by the National Climate Archives
Date modified: